Content
SEND FEEDBACK

Daily
Averages
Monthly
Summary
United States of America

ITHACA, NEW YORK


Home > North America > United States > New York
Elevation: 1094 feet     Latitude: 42 29N     Longitude: 076 28W

WEATHER
 
SELECT A DAY
Number of Records: 163,957;   Date Range: 1/1/95 - 12/26/14
 
SHARE

PRINT THIS DATA

[ ← Previous Day ]
WEATHER ALMANAC - APRIL 7, 2013
[ Next Day → ]
[ °C ]   °F
Weather ElementAverageHighLow
Temperature51.6 °F63.9 °F (3:56 pm)41.9 °F (11:56 pm)
Dewpoint26.7 °F41 °F (8:56 pm)13.1 °F (1:56 am)
Humidity39.4 %70 % (11:56 pm)29 % (1:56 pm)
Barometer29.95 in30.11 in (1:56 am)29.82 in (4:56 pm)
Wind Speed15.5 mph21.9 mph (5:56 am)
Wind Gust33.4 mph (9:56 am)
Weather ElementAverage
Visibility10 mi
Wind DirectionSSE (155 °)

Weather ElementTotal
Precipitation---
Heating Degree Days12.1 (Base 65)
Growing Degree Days2.9 (Base 50)
Averaged from 24 records on April 7, 2013
WEATHER CONDITIONS BREAKOUT
WIND DIRECTION BREAKOUT
WEATHER BY HOUR - APRIL 7, 2013
[ °C ]   °F
Local TimeTemperatureDewpointHumidityBarometerVisibilityWind DirectionWind SpeedGust SpeedPrecipitationEventsConditions
1:56 AM43.0 °F13.1 °F30 %30.11 in10.0 miSouth (170°)17.3 mph23.0 mph0.00 inOvercast
2:56 AM43.0 °F14.0 °F31 %30.08 in10.0 miSouth (170°)12.7 mphOvercast
3:56 AM43.9 °F16.2 °F33 %30.06 in10.0 miSouth (170°)15.0 mphOvercast
4:56 AM43.9 °F17.1 °F34 %30.04 in10.0 miSSE (160°)18.4 mph23.0 mph0.00 inOvercast
5:56 AM43.9 °F19.0 °F37 %30.00 in10.0 miSouth (170°)21.9 mph0.00 inOvercast
6:20 AM44.6 °F19.4 °F37 %30.00 in10.0 miSouth (180°)13.8 mphOvercast
6:56 AM43.9 °F20.1 °F39 %30.01 in10.0 miSouth (170°)21.9 mph26.5 mphMostly Cloudy
7:56 AM43.9 °F21.0 °F40 %30.02 in10.0 miSouth (170°)21.9 mph28.8 mphMostly Cloudy
8:56 AM45.0 °F24.1 °F44 %29.99 in10.0 miSouth (170°)20.7 mph29.9 mphMostly Cloudy
9:56 AM45.9 °F24.1 °F42 %29.96 in10.0 miSouth (170°)21.9 mph33.4 mphMostly Cloudy
10:56 AM50.0 °F25.2 °F38 %29.94 in10.0 miSouth (170°)20.7 mph32.2 mphMostly Cloudy
11:56 AM52.9 °F26.1 °F35 %29.91 in10.0 miSouth (190°)11.5 mph21.9 mphMostly Cloudy
12:56 PM59.9 °F28.0 °F30 %29.86 in10.0 miSouth (170°)19.6 mph31.1 mphClear
1:56 PM63.0 °F30.0 °F29 %29.85 in10.0 miSSW (200°)20.7 mph28.8 mphClear
2:56 PM61.9 °F31.1 °F31 %29.84 in10.0 miSSW (200°)18.4 mph24.2 mphScattered Clouds
3:56 PM63.9 °F32.0 °F30 %29.83 in10.0 miSSW (200°)19.6 mph28.8 mphClear
4:56 PM63.9 °F32.9 °F31 %29.82 in10.0 miSouth (190°)18.4 mph29.9 mphPartly Cloudy
5:56 PM63.9 °F32.9 °F31 %29.83 in10.0 miSouth (190°)16.1 mph23.0 mphScattered Clouds
6:56 PM63.0 °F34.0 °F34 %29.84 in10.0 miSouth (190°)12.7 mphMostly Cloudy
7:56 PM59.9 °F34.9 °F39 %29.89 in10.0 miSSW (210°)4.6 mphMostly Cloudy
8:56 PM57.9 °F41.0 °F53 %29.94 in10.0 miNNE (20°)6.9 mphMostly Cloudy
9:56 PM50.0 °F36.9 °F61 %30.01 in10.0 miNNE (20°)8.1 mphOvercast
10:56 PM45.9 °F34.9 °F66 %30.03 in10.0 miNE (50°)4.6 mphScattered Clouds
11:56 PM41.9 °F32.9 °F70 %30.04 in10.0 miNNE (20°)3.5 mphClear
Hourly data recorded from KITH, located miles away from Ithaca, New York







STORIES FROM OUR PARTNERS